Location: Eastview
(35.0756°N, 88.5453°W)
Time: 02:55:20
(UTC+00:00)

ISS - Pass Details

Date: 22 November 2019
Orbit: 411 x 421 km, 51.6° (Epoch: 14 December)

Event Time Altitude Azimuth Distance (km) Brightness Sun altitude
Rises 23:31:53 0° 226° (SW) 2,338 1.3 -9.8°
Reaches altitude 10° 23:33:58 10° 226° (SW) 1,481 0.1 -10.2°
Maximum altitude 23:37:17 89° 143° (SE) 420 -3.8 -10.9°
Enters shadow 23:39:54 16° 48° (NE) 1,193 -2.0 -11.4°
